Time,TemperatureF,DewpointF,PressureIn,WindDirection,WindDirectionDegrees,WindSpeedMPH,WindSpeedGustMPH,Humidity,HourlyPrecipIn,Conditions,Clouds,dailyrainin,SoftwareType,DateUTC
2013-01-24 00:00:00,-15.9,-34.9,29.56,North,0,0.0,0.0,36,0.00,,---,0.00,VWS V14.01,2013-01-24 05:00:00,
2013-01-24 00:01:00,-15.9,-34.9,29.56,North,0,0.0,0.0,36,0.00,,---,0.00,VWS V14.01,2013-01-24 05:01:00,
2013-01-24 00:04:00,-16.2,-35.2,29.56,North,0,0.0,0.0,36,0.00,,---,0.00,VWS V14.01,2013-01-24 05:04:00,
2013-01-24 00:05:00,-16.2,-35.2,29.56,North,0,0.0,0.0,36,0.00,,---,0.00,VWS V14.01,2013-01-24 05:05:00,
2013-01-24 00:07:00,-16.4,-35.4,29.56,North,0,0.0,0.0,36,0.00,,---,0.00,VWS V14.01,2013-01-24 05:07:00,
2013-01-24 00:13:00,-16.6,-35.6,29.56,North,0,0.0,0.0,36,0.00,,---,0.00,VWS V14.01,2013-01-24 05:13:00,
2013-01-24 00:18:00,-16.4,-35.4,29.56,North,0,0.0,0.0,36,0.00,,---,0.00,VWS V14.01,2013-01-24 05:18:00,
2013-01-24 00:23:00,-16.8,-35.7,29.56,North,0,0.0,0.0,36,0.00,,---,0.00,VWS V14.01,2013-01-24 05:23:00,
2013-01-24 00:28:00,-17.1,-36.1,29.56,North,0,0.0,0.0,36,0.00,,---,0.00,VWS V14.01,2013-01-24 05:28:00,
2013-01-24 00:33:00,-17.0,-35.9,29.56,North,0,0.0,0.0,36,0.00,,---,0.00,VWS V14.01,2013-01-24 05:33:00,
2013-01-24 00:38:00,-17.0,-35.9,29.56,North,0,0.0,0.0,36,0.00,,---,0.00,VWS V14.01,2013-01-24 05:38:00,
2013-01-24 00:43:00,-17.0,-35.9,29.56,North,0,0.0,0.0,36,0.00,,---,0.00,VWS V14.01,2013-01-24 05:43:00,
2013-01-24 00:48:00,-16.8,-35.7,29.56,North,0,0.0,0.0,36,0.00,,---,0.00,VWS V14.01,2013-01-24 05:48:00,
2013-01-24 00:53:00,-17.1,-36.1,29.56,North,0,0.0,0.0,36,0.00,,---,0.00,VWS V14.01,2013-01-24 05:53:00,
2013-01-24 00:58:00,-17.1,-36.1,29.56,North,0,0.0,0.0,36,0.00,,---,0.00,VWS V14.01,2013-01-24 05:58:00,
2013-01-24 01:03:00,-17.3,-36.2,29.56,North,0,0.0,0.0,36,0.00,,---,0.00,VWS V14.01,2013-01-24 06:03:00,
2013-01-24 01:08:00,-17.3,-36.2,29.56,North,0,0.0,0.0,36,0.00,,---,0.00,VWS V14.01,2013-01-24 06:08:00,
2013-01-24 01:14:00,-17.5,-36.4,29.56,North,0,0.0,0.0,36,0.00,,---,0.00,VWS V14.01,2013-01-24 06:14:00,
2013-01-24 01:19:00,-17.7,-36.6,29.56,North,0,0.0,0.0,36,0.00,,---,0.00,VWS V14.01,2013-01-24 06:19:00,
2013-01-24 01:24:00,-17.7,-36.6,29.56,North,0,0.0,0.0,36,0.00,,---,0.00,VWS V14.01,2013-01-24 06:24:00,
2013-01-24 01:29:00,-17.7,-36.6,29.56,North,0,0.0,0.0,36,0.00,,---,0.00,VWS V14.01,2013-01-24 06:29:00,
2013-01-24 01:34:00,-17.7,-36.6,29.56,North,0,0.0,0.0,36,0.00,,---,0.00,VWS V14.01,2013-01-24 06:34:00,
2013-01-24 01:39:00,-17.5,-36.4,29.56,North,0,0.0,0.0,36,0.00,,---,0.00,VWS V14.01,2013-01-24 06:39:00,
2013-01-24 01:45:00,-17.7,-36.6,29.56,North,0,0.0,0.0,36,0.00,,---,0.00,VWS V14.01,2013-01-24 06:45:00,
2013-01-24 01:51:00,-17.9,-36.7,29.56,North,0,0.0,0.0,36,0.00,,---,0.00,VWS V14.01,2013-01-24 06:51:00,
2013-01-24 01:56:00,-18.0,-36.9,29.56,North,0,0.0,0.0,36,0.00,,---,0.00,VWS V14.01,2013-01-24 06:56:00,
2013-01-24 02:01:00,-18.2,-37.0,29.56,North,0,0.0,0.0,36,0.00,,---,0.00,VWS V14.01,2013-01-24 07:01:00,
2013-01-24 02:06:00,-18.2,-37.0,29.56,North,0,0.0,0.0,36,0.00,,---,0.00,VWS V14.01,2013-01-24 07:06:00,
2013-01-24 02:11:00,-18.6,-37.4,29.56,North,0,0.0,0.0,36,0.00,,---,0.00,VWS V14.01,2013-01-24 07:11:00,
2013-01-24 02:16:00,-18.9,-37.7,29.56,North,0,0.0,0.0,36,0.00,,---,0.00,VWS V14.01,2013-01-24 07:16:00,
2013-01-24 02:21:00,-18.6,-37.4,29.56,North,0,0.0,0.0,36,0.00,,---,0.00,VWS V14.01,2013-01-24 07:21:00,
2013-01-24 02:27:00,-18.2,-37.0,29.56,North,0,0.0,0.0,36,0.00,,---,0.00,VWS V14.01,2013-01-24 07:27:00,
2013-01-24 02:32:00,-18.4,-37.2,29.56,North,0,0.0,0.0,36,0.00,,---,0.00,VWS V14.01,2013-01-24 07:32:00,
2013-01-24 02:37:00,-18.6,-37.4,29.56,North,0,0.0,0.0,36,0.00,,---,0.00,VWS V14.01,2013-01-24 07:37:00,
2013-01-24 02:42:00,-18.2,-37.0,29.56,North,0,0.0,0.0,36,0.00,,---,0.00,VWS V14.01,2013-01-24 07:42:00,
2013-01-24 02:47:00,-18.6,-37.4,29.56,North,0,0.0,0.0,36,0.00,,---,0.00,VWS V14.01,2013-01-24 07:47:00,
2013-01-24 02:52:00,-18.8,-37.5,29.56,North,0,0.0,0.0,36,0.00,,---,0.00,VWS V14.01,2013-01-24 07:52:00,
2013-01-24 02:57:00,-18.9,-37.7,29.56,North,0,0.0,0.0,36,0.00,,---,0.00,VWS V14.01,2013-01-24 07:57:00,
2013-01-24 03:02:00,-19.1,-37.9,29.56,North,0,0.0,0.0,36,0.00,,---,0.00,VWS V14.01,2013-01-24 08:02:00,
2013-01-24 03:07:00,-19.1,-37.9,29.56,North,0,0.0,0.0,36,0.00,,---,0.00,VWS V14.01,2013-01-24 08:07:00,
2013-01-24 03:12:00,-19.1,-37.9,29.56,North,0,0.0,0.0,36,0.00,,---,0.00,VWS V14.01,2013-01-24 08:12:00,
2013-01-24 03:17:00,-19.5,-38.2,29.56,North,0,0.0,0.0,36,0.00,,---,0.00,VWS V14.01,2013-01-24 08:17:00,
2013-01-24 03:22:00,-19.1,-37.9,29.56,North,0,0.0,0.0,36,0.00,,---,0.00,VWS V14.01,2013-01-24 08:22:00,
2013-01-24 03:27:00,-18.9,-37.7,29.56,North,0,0.0,0.0,36,0.00,,---,0.00,VWS V14.01,2013-01-24 08:27:00,
2013-01-24 03:32:00,-18.9,-37.7,29.56,North,0,0.0,0.0,36,0.00,,---,0.00,VWS V14.01,2013-01-24 08:32:00,
2013-01-24 03:37:00,-19.1,-37.9,29.56,North,0,0.0,0.0,36,0.00,,---,0.00,VWS V14.01,2013-01-24 08:37:00,
2013-01-24 03:42:00,-19.3,-38.0,29.59,North,0,0.0,0.0,36,0.00,,---,0.00,VWS V14.01,2013-01-24 08:42:00,
2013-01-24 03:47:00,-19.5,-38.2,29.59,North,0,0.0,0.0,36,0.00,,---,0.00,VWS V14.01,2013-01-24 08:47:00,
2013-01-24 03:52:00,-19.3,-38.0,29.59,North,0,0.0,0.0,36,0.00,,---,0.00,VWS V14.01,2013-01-24 08:52:00,
2013-01-24 03:57:00,-19.3,-38.0,29.56,North,0,0.0,0.0,36,0.00,,---,0.00,VWS V14.01,2013-01-24 08:57:00,
2013-01-24 04:02:00,-19.7,-38.3,29.56,North,0,0.0,0.0,36,0.00,,---,0.00,VWS V14.01,2013-01-24 09:02:00,
2013-01-24 04:07:00,-19.7,-38.3,29.56,North,0,0.0,0.0,36,0.00,,---,0.00,VWS V14.01,2013-01-24 09:07:00,
2013-01-24 04:12:00,-19.5,-38.2,29.56,North,0,0.0,0.0,36,0.00,,---,0.00,VWS V14.01,2013-01-24 09:12:00,
2013-01-24 04:17:00,-19.5,-38.2,29.56,North,0,0.0,0.0,36,0.00,,---,0.00,VWS V14.01,2013-01-24 09:17:00,
2013-01-24 04:22:00,-19.8,-38.5,29.56,North,0,0.0,0.0,36,0.00,,---,0.00,VWS V14.01,2013-01-24 09:22:00,
2013-01-24 04:27:00,-19.8,-38.5,29.56,North,0,0.0,0.0,36,0.00,,---,0.00,VWS V14.01,2013-01-24 09:27:00,
2013-01-24 04:32:00,-19.7,-38.3,29.56,North,0,0.0,0.0,36,0.00,,---,0.00,VWS V14.01,2013-01-24 09:32:00,
2013-01-24 04:38:00,-20.0,-38.7,29.56,North,0,0.0,0.0,36,0.00,,---,0.00,VWS V14.01,2013-01-24 09:38:00,
2013-01-24 04:43:00,-19.8,-38.5,29.56,North,0,0.0,0.0,36,0.00,,---,0.00,VWS V14.01,2013-01-24 09:43:00,
2013-01-24 04:48:00,-19.8,-38.5,29.56,North,0,0.0,0.0,36,0.00,,---,0.00,VWS V14.01,2013-01-24 09:48:00,
2013-01-24 04:54:00,-19.7,-38.3,29.56,North,0,0.0,0.0,36,0.00,,---,0.00,VWS V14.01,2013-01-24 09:54:00,
2013-01-24 04:59:00,-19.7,-38.3,29.56,North,0,0.0,0.0,36,0.00,,---,0.00,VWS V14.01,2013-01-24 09:59:00,
2013-01-24 05:04:00,-19.8,-38.5,29.56,North,0,0.0,0.0,36,0.00,,---,0.00,VWS V14.01,2013-01-24 10:04:00,
2013-01-24 05:10:00,-19.8,-38.5,29.56,North,0,0.0,0.0,36,0.00,,---,0.00,VWS V14.01,2013-01-24 10:10:00,
2013-01-24 05:15:00,-20.0,-38.7,29.56,North,0,0.0,0.0,36,0.00,,---,0.00,VWS V14.01,2013-01-24 10:15:00,
2013-01-24 05:20:00,-20.0,-38.7,29.56,North,0,0.0,0.0,36,0.00,,---,0.00,VWS V14.01,2013-01-24 10:20:00,
2013-01-24 05:25:00,-19.8,-38.5,29.53,North,0,0.0,0.0,36,0.00,,---,0.00,VWS V14.01,2013-01-24 10:25:00,
2013-01-24 05:30:00,-20.0,-38.7,29.53,North,0,0.0,0.0,36,0.00,,---,0.00,VWS V14.01,2013-01-24 10:30:00,
2013-01-24 05:36:00,-19.7,-38.3,29.53,North,0,0.0,0.0,36,0.00,,---,0.00,VWS V14.01,2013-01-24 10:36:00,
2013-01-24 05:41:00,-19.7,-38.3,29.56,North,0,0.0,0.0,36,0.00,,---,0.00,VWS V14.01,2013-01-24 10:41:00,
2013-01-24 05:46:00,-20.0,-38.7,29.56,North,0,0.0,0.0,36,0.00,,---,0.00,VWS V14.01,2013-01-24 10:46:00,
2013-01-24 05:52:00,-19.5,-38.2,29.56,North,0,0.0,0.0,36,0.00,,---,0.00,VWS V14.01,2013-01-24 10:52:00,
2013-01-24 05:57:00,-19.3,-38.0,29.56,North,0,0.0,0.0,36,0.00,,---,0.00,VWS V14.01,2013-01-24 10:57:00,
2013-01-24 06:04:00,-19.3,-38.0,29.56,North,0,0.0,0.0,36,0.00,,---,0.00,VWS V14.01,2013-01-24 11:04:00,
2013-01-24 06:09:00,-18.6,-37.4,29.56,North,0,0.0,0.0,36,0.00,,---,0.00,VWS V14.01,2013-01-24 11:09:00,
2013-01-24 06:15:00,-18.4,-37.2,29.56,North,0,0.0,0.0,36,0.00,,---,0.00,VWS V14.01,2013-01-24 11:15:00,
2013-01-24 06:20:00,-18.2,-37.0,29.56,North,0,0.0,0.0,36,0.00,,---,0.00,VWS V14.01,2013-01-24 11:20:00,
2013-01-24 06:26:00,-18.0,-36.9,29.56,North,0,0.0,0.0,36,0.00,,---,0.00,VWS V14.01,2013-01-24 11:26:00,
2013-01-24 06:31:00,-17.9,-36.7,29.56,North,0,0.0,0.0,36,0.00,,---,0.00,VWS V14.01,2013-01-24 11:31:00,
2013-01-24 06:36:00,-17.7,-36.6,29.56,North,0,0.0,0.0,36,0.00,,---,0.00,VWS V14.01,2013-01-24 11:36:00,
2013-01-24 06:42:00,-17.7,-36.6,29.56,North,0,0.0,0.0,36,0.00,,---,0.00,VWS V14.01,2013-01-24 11:42:00,
2013-01-24 06:47:00,-17.3,-36.2,29.56,North,0,0.0,0.0,36,0.00,,---,0.00,VWS V14.01,2013-01-24 11:47:00,
2013-01-24 06:52:00,-17.1,-36.1,29.56,North,0,0.0,0.0,36,0.00,,---,0.00,VWS V14.01,2013-01-24 11:52:00,
2013-01-24 06:57:00,-16.8,-35.7,29.56,North,0,0.0,0.0,36,0.00,,---,0.00,VWS V14.01,2013-01-24 11:57:00,
2013-01-24 07:03:00,-16.4,-35.4,29.56,North,0,0.0,0.0,36,0.00,,---,0.00,VWS V14.01,2013-01-24 12:03:00,
2013-01-24 07:09:00,-16.2,-35.2,29.56,North,0,0.0,0.0,36,0.00,,---,0.00,VWS V14.01,2013-01-24 12:09:00,
2013-01-24 07:14:00,-16.1,-35.1,29.56,North,0,0.0,0.0,36,0.00,,---,0.00,VWS V14.01,2013-01-24 12:14:00,
2013-01-24 07:19:00,-15.7,-34.8,29.56,North,0,0.0,0.0,36,0.00,,---,0.00,VWS V14.01,2013-01-24 12:19:00,
2013-01-24 07:24:00,-15.5,-34.6,29.56,North,0,0.0,0.0,36,0.00,,---,0.00,VWS V14.01,2013-01-24 12:24:00,
2013-01-24 07:29:00,-15.0,-34.1,29.56,North,0,0.0,0.0,36,0.00,,---,0.00,VWS V14.01,2013-01-24 12:29:00,
2013-01-24 07:34:00,-14.4,-33.6,29.56,North,0,0.0,0.0,36,0.00,,---,0.00,VWS V14.01,2013-01-24 12:34:00,
2013-01-24 07:39:00,-13.9,-33.1,29.56,North,0,0.0,0.0,36,0.00,,---,0.00,VWS V14.01,2013-01-24 12:39:00,
2013-01-24 07:44:00,-13.4,-32.7,29.56,North,0,0.0,0.0,36,0.00,,---,0.00,VWS V14.01,2013-01-24 12:44:00,
2013-01-24 07:49:00,-13.0,-32.3,29.56,North,0,0.0,0.0,36,0.00,,---,0.00,VWS V14.01,2013-01-24 12:49:00,
2013-01-24 07:54:00,-12.6,-32.0,29.56,North,0,0.0,0.0,36,0.00,,---,0.00,VWS V14.01,2013-01-24 12:54:00,
2013-01-24 08:00:00,-11.6,-31.0,29.56,North,0,0.0,0.0,36,0.00,,---,0.00,VWS V14.01,2013-01-24 13:00:00,
2013-01-24 08:05:00,-11.0,-30.5,29.56,North,0,0.0,0.0,36,0.00,,---,0.00,VWS V14.01,2013-01-24 13:05:00,
2013-01-24 08:10:00,-10.5,-30.0,29.56,North,0,0.0,0.0,36,0.00,,---,0.00,VWS V14.01,2013-01-24 13:10:00,
2013-01-24 08:15:00,-10.1,-29.7,29.56,North,0,0.0,0.0,36,0.00,,---,0.00,VWS V14.01,2013-01-24 13:15:00,
2013-01-24 08:21:00,-9.6,-29.2,29.56,North,0,0.0,0.0,36,0.00,,---,0.00,VWS V14.01,2013-01-24 13:21:00,
2013-01-24 08:26:00,-8.7,-28.4,29.56,North,0,0.0,0.0,36,0.00,,---,0.00,VWS V14.01,2013-01-24 13:26:00,
2013-01-24 08:31:00,-8.0,-27.8,29.56,North,0,0.0,0.0,36,0.00,,---,0.00,VWS V14.01,2013-01-24 13:31:00,
2013-01-24 08:36:00,-7.8,-27.6,29.56,North,0,0.0,0.0,36,0.00,,---,0.00,VWS V14.01,2013-01-24 13:36:00,
2013-01-24 08:41:00,-7.2,-27.1,29.56,North,0,0.0,0.0,36,0.00,,---,0.00,VWS V14.01,2013-01-24 13:41:00,
2013-01-24 08:47:00,-6.5,-26.5,29.56,North,0,0.0,0.0,36,0.00,,---,0.00,VWS V14.01,2013-01-24 13:47:00,
2013-01-24 08:53:00,-6.2,-26.1,29.56,North,0,0.0,0.0,36,0.00,,---,0.00,VWS V14.01,2013-01-24 13:53:00,
2013-01-24 08:58:00,-4.7,-24.9,29.56,North,0,0.0,0.0,36,0.00,,---,0.00,VWS V14.01,2013-01-24 13:58:00,
2013-01-24 09:03:00,-4.2,-24.4,29.56,North,0,0.0,0.0,36,0.00,,---,0.00,VWS V14.01,2013-01-24 14:03:00,
2013-01-24 09:08:00,-3.1,-23.4,29.56,North,0,0.0,0.0,36,0.00,,---,0.00,VWS V14.01,2013-01-24 14:08:00,
2013-01-24 09:13:00,-2.2,-22.6,29.56,North,0,0.0,0.0,36,0.00,,---,0.00,VWS V14.01,2013-01-24 14:13:00,
2013-01-24 09:18:00,-1.3,-21.8,29.56,North,0,0.0,0.0,36,0.00,,---,0.00,VWS V14.01,2013-01-24 14:18:00,
2013-01-24 09:24:00,-0.8,-21.3,29.56,North,0,0.0,0.0,36,0.00,,---,0.00,VWS V14.01,2013-01-24 14:24:00,
2013-01-24 09:29:00,0.3,-20.3,29.56,North,0,0.0,0.0,36,0.00,,---,0.00,VWS V14.01,2013-01-24 14:29:00,
2013-01-24 09:35:00,0.7,-20.0,29.56,North,0,0.0,0.0,36,0.00,,---,0.00,VWS V14.01,2013-01-24 14:35:00,
2013-01-24 09:40:00,1.6,-19.2,29.56,North,0,0.0,0.0,36,0.00,,---,0.00,VWS V14.01,2013-01-24 14:40:00,
2013-01-24 09:45:00,2.1,-18.7,29.56,North,0,0.0,0.0,36,0.00,,---,0.00,VWS V14.01,2013-01-24 14:45:00,
2013-01-24 09:50:00,2.8,-18.0,29.56,North,0,0.0,0.0,36,0.00,,---,0.00,VWS V14.01,2013-01-24 14:50:00,
2013-01-24 09:55:00,3.6,-17.4,29.56,North,0,0.0,0.0,36,0.00,,---,0.00,VWS V14.01,2013-01-24 14:55:00,
2013-01-24 10:00:00,4.1,-16.9,29.56,North,0,0.0,0.0,36,0.00,,---,0.00,VWS V14.01,2013-01-24 15:00:00,
2013-01-24 10:05:00,4.8,-16.3,29.56,North,0,0.0,0.0,36,0.00,,---,0.00,VWS V14.01,2013-01-24 15:05:00,
2013-01-24 10:10:00,5.4,-15.8,29.56,North,0,0.0,0.0,36,0.00,,---,0.00,VWS V14.01,2013-01-24 15:10:00,
2013-01-24 10:15:00,5.7,-15.5,29.56,North,0,0.0,0.0,36,0.00,,---,0.00,VWS V14.01,2013-01-24 15:15:00,
2013-01-24 10:20:00,6.1,-15.1,29.56,North,0,0.0,0.0,36,0.00,,---,0.00,VWS V14.01,2013-01-24 15:20:00,
2013-01-24 10:25:00,6.4,-14.8,29.56,North,0,0.0,0.0,36,0.00,,---,0.00,VWS V14.01,2013-01-24 15:25:00,
2013-01-24 10:30:00,7.2,-14.2,29.56,North,0,0.0,0.0,36,0.00,,---,0.00,VWS V14.01,2013-01-24 15:30:00,
2013-01-24 10:35:00,7.9,-13.5,29.56,North,0,0.0,0.0,36,0.00,,---,0.00,VWS V14.01,2013-01-24 15:35:00,
2013-01-24 10:40:00,8.1,-13.4,29.56,North,0,0.0,0.0,36,0.00,,---,0.00,VWS V14.01,2013-01-24 15:40:00,
2013-01-24 10:45:00,8.6,-12.9,29.56,North,0,0.0,0.0,36,0.00,,---,0.00,VWS V14.01,2013-01-24 15:45:00,
2013-01-24 10:50:00,9.7,-11.9,29.56,North,0,0.0,0.0,36,0.00,,---,0.00,VWS V14.01,2013-01-24 15:50:00,
2013-01-24 10:55:00,10.0,-11.6,29.56,North,0,0.0,0.0,36,0.00,,---,0.00,VWS V14.01,2013-01-24 15:55:00,
2013-01-24 11:01:00,10.9,-10.8,29.56,North,0,0.0,0.0,36,0.00,,---,0.00,VWS V14.01,2013-01-24 16:01:00,
2013-01-24 11:06:00,11.1,-10.6,29.56,North,0,0.0,0.0,36,0.00,,---,0.00,VWS V14.01,2013-01-24 16:06:00,
2013-01-24 11:11:00,11.5,-10.3,29.53,North,0,0.0,0.0,36,0.00,,---,0.00,VWS V14.01,2013-01-24 16:11:00,
2013-01-24 11:17:00,11.3,-10.4,29.53,North,0,0.0,0.0,36,0.00,,---,0.00,VWS V14.01,2013-01-24 16:17:00,
2013-01-24 11:22:00,11.3,-10.4,29.53,North,0,0.0,0.0,36,0.00,,---,0.00,VWS V14.01,2013-01-24 16:22:00,
2013-01-24 11:27:00,11.7,-10.1,29.53,North,0,0.0,0.0,36,0.00,,---,0.00,VWS V14.01,2013-01-24 16:27:00,
2013-01-24 11:32:00,12.0,-9.8,29.53,North,0,0.0,0.0,36,0.00,,---,0.00,VWS V14.01,2013-01-24 16:32:00,
2013-01-24 11:38:00,12.0,-9.8,29.53,North,0,0.0,0.0,36,0.00,,---,0.00,VWS V14.01,2013-01-24 16:38:00,
2013-01-24 11:43:00,12.0,-9.8,29.53,North,0,0.0,0.0,36,0.00,,---,0.00,VWS V14.01,2013-01-24 16:43:00,
2013-01-24 11:48:00,12.6,-9.3,29.53,North,0,0.0,0.0,36,0.00,,---,0.00,VWS V14.01,2013-01-24 16:48:00,
2013-01-24 11:54:00,12.6,-9.3,29.53,North,0,0.0,0.0,36,0.00,,---,0.00,VWS V14.01,2013-01-24 16:54:00,
2013-01-24 11:59:00,12.7,-9.2,29.53,North,0,0.0,0.0,36,0.00,,---,0.00,VWS V14.01,2013-01-24 16:59:00,
2013-01-24 12:05:00,13.1,-8.8,29.53,North,0,0.0,0.0,36,0.00,,---,0.00,VWS V14.01,2013-01-24 17:05:00,
2013-01-24 12:10:00,12.9,-9.0,29.50,North,0,0.0,0.0,36,0.00,,---,0.00,VWS V14.01,2013-01-24 17:10:00,
2013-01-24 12:15:00,12.9,-9.0,29.50,North,0,0.0,0.0,36,0.00,,---,0.00,VWS V14.01,2013-01-24 17:15:00,
2013-01-24 12:20:00,12.7,-9.2,29.50,North,0,0.0,0.0,36,0.00,,---,0.00,VWS V14.01,2013-01-24 17:20:00,
2013-01-24 12:25:00,12.9,-9.0,29.50,North,0,0.0,0.0,36,0.00,,---,0.00,VWS V14.01,2013-01-24 17:25:00,
2013-01-24 12:30:00,13.1,-8.8,29.50,North,0,0.0,0.0,36,0.00,,---,0.00,VWS V14.01,2013-01-24 17:30:00,
2013-01-24 12:35:00,13.3,-8.7,29.50,North,0,0.0,0.0,36,0.00,,---,0.00,VWS V14.01,2013-01-24 17:35:00,
2013-01-24 12:40:00,13.3,-8.7,29.50,North,0,0.0,0.0,36,0.00,,---,0.00,VWS V14.01,2013-01-24 17:40:00,
2013-01-24 12:45:00,13.1,-8.8,29.50,North,0,0.0,0.0,36,0.00,,---,0.00,VWS V14.01,2013-01-24 17:45:00,
2013-01-24 12:51:00,13.3,-8.7,29.50,North,0,0.0,0.0,36,0.00,,---,0.00,VWS V14.01,2013-01-24 17:51:00,
2013-01-24 12:56:00,13.6,-8.4,29.50,North,0,0.0,0.0,36,0.00,,---,0.00,VWS V14.01,2013-01-24 17:56:00,
2013-01-24 13:01:00,13.6,-8.4,29.50,North,0,0.0,0.0,36,0.00,,---,0.00,VWS V14.01,2013-01-24 18:01:00,
2013-01-24 13:06:00,13.5,-8.5,29.50,North,0,0.0,0.0,36,0.00,,---,0.00,VWS V14.01,2013-01-24 18:06:00,
2013-01-24 13:12:00,13.6,-8.4,29.50,North,0,0.0,0.0,36,0.00,,---,0.00,VWS V14.01,2013-01-24 18:12:00,
2013-01-24 13:17:00,13.6,-8.4,29.50,North,0,0.0,0.0,36,0.00,,---,0.00,VWS V14.01,2013-01-24 18:17:00,
2013-01-24 13:22:00,14.2,-7.3,29.50,North,0,0.0,0.0,37,0.00,,---,0.00,VWS V14.01,2013-01-24 18:22:00,
2013-01-24 13:27:00,14.0,-7.5,29.47,North,0,0.0,0.0,37,0.00,,---,0.00,VWS V14.01,2013-01-24 18:27:00,
2013-01-24 13:32:00,13.5,-7.9,29.47,North,0,0.0,0.0,37,0.00,,---,0.00,VWS V14.01,2013-01-24 18:32:00,
2013-01-24 13:37:00,13.5,-7.9,29.47,North,0,0.0,0.0,37,0.00,,---,0.00,VWS V14.01,2013-01-24 18:37:00,
2013-01-24 13:42:00,13.3,-8.1,29.47,North,0,0.0,0.0,37,0.00,,---,0.00,VWS V14.01,2013-01-24 18:42:00,
2013-01-24 13:47:00,12.9,-8.4,29.47,North,0,0.0,0.0,37,0.00,,---,0.00,VWS V14.01,2013-01-24 18:47:00,
2013-01-24 13:52:00,12.6,-8.8,29.47,North,0,0.0,0.0,37,0.00,,---,0.00,VWS V14.01,2013-01-24 18:52:00,
2013-01-24 13:57:00,12.0,-9.2,29.47,North,0,0.0,0.0,37,0.00,,---,0.00,VWS V14.01,2013-01-24 18:57:00,
2013-01-24 14:02:00,12.0,-9.2,29.47,North,0,0.0,0.0,37,0.00,,---,0.00,VWS V14.01,2013-01-24 19:02:00,
2013-01-24 14:07:00,12.6,-8.8,29.47,North,0,0.0,0.0,37,0.00,,---,0.00,VWS V14.01,2013-01-24 19:07:00,
2013-01-24 14:12:00,13.3,-8.1,29.47,North,0,0.0,0.0,37,0.00,,---,0.00,VWS V14.01,2013-01-24 19:12:00,
2013-01-24 14:17:00,13.1,-8.3,29.47,North,0,0.0,0.0,37,0.00,,---,0.00,VWS V14.01,2013-01-24 19:17:00,
2013-01-24 14:22:00,13.1,-8.3,29.47,North,0,0.0,0.0,37,0.00,,---,0.00,VWS V14.01,2013-01-24 19:22:00,
2013-01-24 14:28:00,12.7,-8.6,29.47,North,0,0.0,0.0,37,0.00,,---,0.00,VWS V14.01,2013-01-24 19:28:00,
2013-01-24 14:34:00,12.7,-8.6,29.47,North,0,0.0,0.0,37,0.00,,---,0.00,VWS V14.01,2013-01-24 19:34:00,
2013-01-24 14:39:00,12.6,-8.8,29.47,North,0,0.0,0.0,37,0.00,,---,0.00,VWS V14.01,2013-01-24 19:39:00,
2013-01-24 14:44:00,12.6,-8.8,29.47,North,0,0.0,0.0,37,0.00,,---,0.00,VWS V14.01,2013-01-24 19:44:00,
2013-01-24 14:49:00,12.6,-8.8,29.47,North,0,0.0,0.0,37,0.00,,---,0.00,VWS V14.01,2013-01-24 19:49:00,
2013-01-24 14:54:00,12.6,-8.8,29.47,North,0,0.0,0.0,37,0.00,,---,0.00,VWS V14.01,2013-01-24 19:54:00,
2013-01-24 14:59:00,12.2,-9.1,29.47,North,0,0.0,0.0,37,0.00,,---,0.00,VWS V14.01,2013-01-24 19:59:00,
2013-01-24 15:04:00,12.0,-9.2,29.47,North,0,0.0,0.0,37,0.00,,---,0.00,VWS V14.01,2013-01-24 20:04:00,
2013-01-24 15:10:00,12.0,-9.2,29.50,North,0,0.0,0.0,37,0.00,,---,0.00,VWS V14.01,2013-01-24 20:10:00,
2013-01-24 15:15:00,12.0,-9.2,29.50,North,0,0.0,0.0,37,0.00,,---,0.00,VWS V14.01,2013-01-24 20:15:00,
2013-01-24 15:20:00,11.7,-9.6,29.50,North,0,0.0,0.0,37,0.00,,---,0.00,VWS V14.01,2013-01-24 20:20:00,
2013-01-24 15:25:00,11.7,-9.6,29.47,North,0,0.0,0.0,37,0.00,,---,0.00,VWS V14.01,2013-01-24 20:25:00,
2013-01-24 15:30:00,11.5,-9.7,29.47,North,0,0.0,0.0,37,0.00,,---,0.00,VWS V14.01,2013-01-24 20:30:00,
2013-01-24 15:35:00,11.3,-9.9,29.47,North,0,0.0,0.0,37,0.00,,---,0.00,VWS V14.01,2013-01-24 20:35:00,
2013-01-24 15:40:00,11.5,-9.7,29.50,North,0,0.0,0.0,37,0.00,,---,0.00,VWS V14.01,2013-01-24 20:40:00,
2013-01-24 15:46:00,11.7,-9.6,29.50,North,0,0.0,0.0,37,0.00,,---,0.00,VWS V14.01,2013-01-24 20:46:00,
2013-01-24 15:51:00,11.7,-9.6,29.50,North,0,0.0,0.0,37,0.00,,---,0.00,VWS V14.01,2013-01-24 20:51:00,
2013-01-24 15:57:00,11.5,-9.7,29.50,North,0,0.0,0.0,37,0.00,,---,0.00,VWS V14.01,2013-01-24 20:57:00,
2013-01-24 16:02:00,11.3,-9.9,29.50,North,0,0.0,0.0,37,0.00,,---,0.00,VWS V14.01,2013-01-24 21:02:00,
2013-01-24 16:07:00,10.9,-10.2,29.50,North,0,0.0,0.0,37,0.00,,---,0.00,VWS V14.01,2013-01-24 21:07:00,
2013-01-24 16:12:00,10.8,-10.4,29.50,North,0,0.0,0.0,37,0.00,,---,0.00,VWS V14.01,2013-01-24 21:12:00,
2013-01-24 16:17:00,10.4,-10.7,29.50,North,0,0.0,0.0,37,0.00,,---,0.00,VWS V14.01,2013-01-24 21:17:00,
2013-01-24 16:22:00,10.2,-10.9,29.50,North,0,0.0,0.0,37,0.00,,---,0.00,VWS V14.01,2013-01-24 21:22:00,
2013-01-24 16:27:00,10.0,-11.0,29.50,North,0,0.0,0.0,37,0.00,,---,0.00,VWS V14.01,2013-01-24 21:27:00,
2013-01-24 16:33:00,10.0,-11.0,29.50,North,0,0.0,0.0,37,0.00,,---,0.00,VWS V14.01,2013-01-24 21:33:00,
2013-01-24 16:39:00,9.7,-11.4,29.53,North,0,0.0,0.0,37,0.00,,---,0.00,VWS V14.01,2013-01-24 21:39:00,
2013-01-24 16:44:00,9.3,-11.7,29.53,North,0,0.0,0.0,37,0.00,,---,0.00,VWS V14.01,2013-01-24 21:44:00,
2013-01-24 16:49:00,9.5,-11.5,29.53,North,0,0.0,0.0,37,0.00,,---,0.00,VWS V14.01,2013-01-24 21:49:00,
2013-01-24 16:54:00,9.7,-11.4,29.50,North,0,0.0,0.0,37,0.00,,---,0.00,VWS V14.01,2013-01-24 21:54:00,
2013-01-24 16:59:00,10.0,-11.0,29.50,North,0,0.0,0.0,37,0.00,,---,0.00,VWS V14.01,2013-01-24 21:59:00,
2013-01-24 17:05:00,9.5,-11.5,29.50,North,0,0.0,0.0,37,0.00,,---,0.00,VWS V14.01,2013-01-24 22:05:00,
2013-01-24 17:10:00,9.7,-11.4,29.53,North,0,0.0,0.0,37,0.00,,---,0.00,VWS V14.01,2013-01-24 22:10:00,
2013-01-24 17:15:00,9.5,-11.5,29.53,North,0,0.0,0.0,37,0.00,,---,0.00,VWS V14.01,2013-01-24 22:15:00,
2013-01-24 17:20:00,9.3,-11.7,29.53,North,0,0.0,0.0,37,0.00,,---,0.00,VWS V14.01,2013-01-24 22:20:00,
2013-01-24 17:25:00,9.3,-11.7,29.53,North,0,0.0,0.0,37,0.00,,---,0.00,VWS V14.01,2013-01-24 22:25:00,
2013-01-24 17:30:00,9.1,-11.8,29.53,North,0,0.0,0.0,37,0.00,,---,0.00,VWS V14.01,2013-01-24 22:30:00,
2013-01-24 17:35:00,9.0,-12.0,29.53,North,0,0.0,0.0,37,0.00,,---,0.00,VWS V14.01,2013-01-24 22:35:00,
2013-01-24 17:40:00,8.8,-12.2,29.53,North,0,0.0,0.0,37,0.00,,---,0.00,VWS V14.01,2013-01-24 22:40:00,
2013-01-24 17:45:00,8.4,-12.5,29.53,North,0,0.0,0.0,37,0.00,,---,0.00,VWS V14.01,2013-01-24 22:45:00,
2013-01-24 17:50:00,8.6,-12.3,29.53,North,0,0.0,0.0,37,0.00,,---,0.00,VWS V14.01,2013-01-24 22:50:00,
2013-01-24 17:55:00,8.6,-12.3,29.53,North,0,0.0,0.0,37,0.00,,---,0.00,VWS V14.01,2013-01-24 22:55:00,
2013-01-24 18:00:00,8.4,-12.5,29.53,North,0,0.0,0.0,37,0.00,,---,0.00,VWS V14.01,2013-01-24 23:00:00,
2013-01-24 18:05:00,7.9,-13.0,29.53,North,0,0.0,0.0,37,0.00,,---,0.00,VWS V14.01,2013-01-24 23:05:00,
2013-01-24 18:11:00,7.7,-13.1,29.53,North,0,0.0,0.0,37,0.00,,---,0.00,VWS V14.01,2013-01-24 23:11:00,
2013-01-24 18:16:00,7.3,-13.5,29.53,North,0,0.0,0.0,37,0.00,,---,0.00,VWS V14.01,2013-01-24 23:16:00,
2013-01-24 18:21:00,7.0,-13.8,29.53,North,0,0.0,0.0,37,0.00,,---,0.00,VWS V14.01,2013-01-24 23:21:00,
2013-01-24 18:27:00,6.4,-14.3,29.53,North,0,0.0,0.0,37,0.00,,---,0.00,VWS V14.01,2013-01-24 23:27:00,
2013-01-24 18:32:00,6.1,-14.6,29.53,North,0,0.0,0.0,37,0.00,,---,0.00,VWS V14.01,2013-01-24 23:32:00,
2013-01-24 18:37:00,5.9,-14.8,29.53,North,0,0.0,0.0,37,0.00,,---,0.00,VWS V14.01,2013-01-24 23:37:00,
2013-01-24 18:42:00,5.9,-14.8,29.53,North,0,0.0,0.0,37,0.00,,---,0.00,VWS V14.01,2013-01-24 23:42:00,
2013-01-24 18:47:00,6.4,-14.3,29.53,North,0,0.0,0.0,37,0.00,,---,0.00,VWS V14.01,2013-01-24 23:47:00,
2013-01-24 18:52:00,7.3,-13.5,29.53,North,0,0.0,0.0,37,0.00,,---,0.00,VWS V14.01,2013-01-24 23:52:00,
2013-01-24 18:57:00,7.2,-13.6,29.53,North,0,0.0,0.0,37,0.00,,---,0.00,VWS V14.01,2013-01-24 23:57:00,
2013-01-24 19:02:00,6.8,-13.9,29.53,North,0,0.0,0.0,37,0.00,,---,0.00,VWS V14.01,2013-01-25 00:02:00,
2013-01-24 19:07:00,6.4,-14.3,29.53,North,0,0.0,0.0,37,0.00,,---,0.00,VWS V14.01,2013-01-25 00:07:00,
2013-01-24 19:12:00,6.4,-14.3,29.53,North,0,0.0,0.0,37,0.00,,---,0.00,VWS V14.01,2013-01-25 00:12:00,
2013-01-24 19:17:00,6.8,-13.9,29.53,North,0,0.0,0.0,37,0.00,,---,0.00,VWS V14.01,2013-01-25 00:17:00,
2013-01-24 19:22:00,7.0,-13.8,29.53,North,0,0.0,0.0,37,0.00,,---,0.00,VWS V14.01,2013-01-25 00:22:00,
2013-01-24 19:28:00,7.0,-13.8,29.56,North,0,0.0,0.0,37,0.00,,---,0.00,VWS V14.01,2013-01-25 00:28:00,
2013-01-24 19:34:00,7.0,-13.8,29.56,North,0,0.0,0.0,37,0.00,,---,0.00,VWS V14.01,2013-01-25 00:34:00,
2013-01-24 19:39:00,7.0,-13.8,29.56,North,0,0.0,0.0,37,0.00,,---,0.00,VWS V14.01,2013-01-25 00:39:00,
2013-01-24 19:44:00,6.4,-14.3,29.56,North,0,0.0,0.0,37,0.00,,---,0.00,VWS V14.01,2013-01-25 00:44:00,
2013-01-24 19:49:00,6.1,-14.6,29.56,North,0,0.0,0.0,37,0.00,,---,0.00,VWS V14.01,2013-01-25 00:49:00,
2013-01-24 19:54:00,5.9,-14.8,29.56,North,0,0.0,0.0,37,0.00,,---,0.00,VWS V14.01,2013-01-25 00:54:00,
2013-01-24 19:59:00,5.5,-15.1,29.56,North,0,0.0,0.0,37,0.00,,---,0.00,VWS V14.01,2013-01-25 00:59:00,
2013-01-24 20:05:00,4.8,-15.7,29.56,North,0,0.0,0.0,37,0.00,,---,0.00,VWS V14.01,2013-01-25 01:05:00,
2013-01-24 20:11:00,4.5,-16.1,29.53,North,0,0.0,0.0,37,0.00,,---,0.00,VWS V14.01,2013-01-25 01:11:00,
2013-01-24 20:16:00,4.5,-16.1,29.53,North,0,0.0,0.0,37,0.00,,---,0.00,VWS V14.01,2013-01-25 01:16:00,
2013-01-24 20:21:00,4.5,-16.1,29.53,North,0,0.0,0.0,37,0.00,,---,0.00,VWS V14.01,2013-01-25 01:21:00,
2013-01-24 20:26:00,5.5,-15.1,29.53,North,0,0.0,0.0,37,0.00,,---,0.00,VWS V14.01,2013-01-25 01:26:00,
2013-01-24 20:32:00,5.9,-14.8,29.53,North,0,0.0,0.0,37,0.00,,---,0.00,VWS V14.01,2013-01-25 01:32:00,
2013-01-24 20:37:00,5.5,-15.1,29.53,North,0,0.0,0.0,37,0.00,,---,0.00,VWS V14.01,2013-01-25 01:37:00,
2013-01-24 20:42:00,5.4,-15.2,29.56,North,0,0.0,0.0,37,0.00,,---,0.00,VWS V14.01,2013-01-25 01:42:00,
2013-01-24 20:47:00,5.4,-15.2,29.56,North,0,0.0,0.0,37,0.00,,---,0.00,VWS V14.01,2013-01-25 01:47:00,
2013-01-24 20:52:00,5.9,-14.8,29.56,North,0,0.0,0.0,37,0.00,,---,0.00,VWS V14.01,2013-01-25 01:52:00,
2013-01-24 20:57:00,6.3,-14.4,29.56,North,0,0.0,0.0,37,0.00,,---,0.00,VWS V14.01,2013-01-25 01:57:00,
2013-01-24 21:02:00,6.4,-14.3,29.56,North,0,0.0,0.0,37,0.00,,---,0.00,VWS V14.01,2013-01-25 02:02:00,
2013-01-24 21:07:00,6.4,-14.3,29.56,North,0,0.0,0.0,37,0.00,,---,0.00,VWS V14.01,2013-01-25 02:07:00,
2013-01-24 21:13:00,6.4,-14.3,29.56,North,0,0.0,0.0,37,0.00,,---,0.00,VWS V14.01,2013-01-25 02:13:00,
2013-01-24 21:19:00,5.2,-15.4,29.56,North,0,0.0,0.0,37,0.00,,---,0.00,VWS V14.01,2013-01-25 02:19:00,
2013-01-24 21:25:00,4.6,-15.9,29.56,North,0,0.0,0.0,37,0.00,,---,0.00,VWS V14.01,2013-01-25 02:25:00,
2013-01-24 21:30:00,4.3,-16.2,29.59,North,0,0.0,0.0,37,0.00,,---,0.00,VWS V14.01,2013-01-25 02:30:00,
2013-01-24 21:35:00,3.7,-16.7,29.59,North,0,0.0,0.0,37,0.00,,---,0.00,VWS V14.01,2013-01-25 02:35:00,
2013-01-24 21:40:00,3.4,-17.0,29.59,North,0,0.0,0.0,37,0.00,,---,0.00,VWS V14.01,2013-01-25 02:40:00,
2013-01-24 21:46:00,3.0,-17.4,29.59,North,0,0.0,0.0,37,0.00,,---,0.00,VWS V14.01,2013-01-25 02:46:00,
2013-01-24 21:51:00,2.8,-17.5,29.59,North,0,0.0,0.0,37,0.00,,---,0.00,VWS V14.01,2013-01-25 02:51:00,
2013-01-24 21:56:00,3.4,-17.0,29.59,North,0,0.0,0.0,37,0.00,,---,0.00,VWS V14.01,2013-01-25 02:56:00,
2013-01-24 22:03:00,3.0,-17.4,29.59,North,0,0.0,0.0,37,0.00,,---,0.00,VWS V14.01,2013-01-25 03:03:00,
2013-01-24 22:08:00,3.0,-17.4,29.59,North,0,0.0,0.0,37,0.00,,---,0.00,VWS V14.01,2013-01-25 03:08:00,
2013-01-24 22:13:00,3.0,-17.4,29.59,North,0,0.0,0.0,37,0.00,,---,0.00,VWS V14.01,2013-01-25 03:13:00,
2013-01-24 22:18:00,3.2,-17.2,29.59,North,0,0.0,0.0,37,0.00,,---,0.00,VWS V14.01,2013-01-25 03:18:00,
2013-01-24 22:23:00,2.8,-17.5,29.59,North,0,0.0,0.0,37,0.00,,---,0.00,VWS V14.01,2013-01-25 03:23:00,
2013-01-24 22:28:00,2.7,-17.7,29.59,North,0,0.0,0.0,37,0.00,,---,0.00,VWS V14.01,2013-01-25 03:28:00,
2013-01-24 22:34:00,2.5,-17.8,29.59,North,0,0.0,0.0,37,0.00,,---,0.00,VWS V14.01,2013-01-25 03:34:00,
2013-01-24 22:39:00,2.5,-17.8,29.59,North,0,0.0,0.0,37,0.00,,---,0.00,VWS V14.01,2013-01-25 03:39:00,
2013-01-24 22:44:00,2.7,-17.7,29.59,North,0,0.0,0.0,37,0.00,,---,0.00,VWS V14.01,2013-01-25 03:44:00,
2013-01-24 22:49:00,2.8,-17.5,29.59,North,0,0.0,0.0,37,0.00,,---,0.00,VWS V14.01,2013-01-25 03:49:00,
2013-01-24 22:54:00,2.5,-17.8,29.59,North,0,0.0,0.0,37,0.00,,---,0.00,VWS V14.01,2013-01-25 03:54:00,
2013-01-24 23:00:00,2.7,-17.7,29.59,North,0,0.0,0.0,37,0.00,,---,0.00,VWS V14.01,2013-01-25 04:00:00,
2013-01-24 23:05:00,2.5,-17.8,29.59,North,0,0.0,0.0,37,0.00,,---,0.00,VWS V14.01,2013-01-25 04:05:00,
2013-01-24 23:10:00,2.5,-17.8,29.62,North,0,0.0,0.0,37,0.00,,---,0.00,VWS V14.01,2013-01-25 04:10:00,
2013-01-24 23:15:00,2.5,-17.8,29.62,North,0,0.0,0.0,37,0.00,,---,0.00,VWS V14.01,2013-01-25 04:15:00,
2013-01-24 23:20:00,2.8,-17.5,29.62,North,0,0.0,0.0,37,0.00,,---,0.00,VWS V14.01,2013-01-25 04:20:00,
2013-01-24 23:25:00,3.2,-17.2,29.59,North,0,0.0,0.0,37,0.00,,---,0.00,VWS V14.01,2013-01-25 04:25:00,
2013-01-24 23:30:00,3.2,-17.2,29.59,North,0,0.0,0.0,37,0.00,,---,0.00,VWS V14.01,2013-01-25 04:30:00,
2013-01-24 23:36:00,2.8,-17.5,29.59,North,0,0.0,0.0,37,0.00,,---,0.00,VWS V14.01,2013-01-25 04:36:00,
2013-01-24 23:41:00,2.8,-17.5,29.62,North,0,0.0,0.0,37,0.00,,---,0.00,VWS V14.01,2013-01-25 04:41:00,
2013-01-24 23:47:00,2.7,-17.7,29.62,North,0,0.0,0.0,37,0.00,,---,0.00,VWS V14.01,2013-01-25 04:47:00,
2013-01-24 23:52:00,2.7,-17.7,29.62,North,0,0.0,0.0,37,0.00,,---,0.00,VWS V14.01,2013-01-25 04:52:00,
2013-01-24 23:57:00,2.7,-17.7,29.62,North,0,0.0,0.0,37,0.00,,---,0.00,VWS V14.01,2013-01-25 04:57:00,